• In Austria
  • List of Countries
  • For 7 days
  • Water Temperature
  • Satellite Maps
  • Weather Map
  • News
  • Weather Widgets
  • user-avatar
    Login

    Hourly Weather Santiago del Estero

    Today, 20 July, Friday

    Time Temperature Precipitation Wind Pressure Humidity
    00:00 +10°C° 0 mm 3 mps 747 mmHg 48%
    01:00 +10°C° 0 mm 4 mps 748 mmHg 45%
    02:00 +9°C° 0 mm 5 mps 748 mmHg 43%
    03:00 +9°C° 0 mm 6 mps 748 mmHg 41%
    04:00 +9°C° 0 mm 7 mps 748 mmHg 38%
    05:00 +9°C° 0 mm 8 mps 748 mmHg 36%
    06:00 +8°C° 0 mm 7 mps 749 mmHg 38%
    07:00 +8°C° 0 mm 7 mps 750 mmHg 40%
    08:00 +9°C° 0 mm 7 mps 751 mmHg 42%
    09:00 +10°C° 0 mm 8 mps 751 mmHg 37%
    10:00 +12°C° 0 mm 9 mps 752 mmHg 33%
    11:00 +13°C° 0 mm 10 mps 752 mmHg 28%
    12:00 +15°C° 0 mm 9 mps 751 mmHg 26%
    13:00 +16°C° 0 mm 8 mps 751 mmHg 24%
    14:00 +17°C° 0 mm 7 mps 751 mmHg 22%
    15:00 +16°C° 0 mm 6 mps 751 mmHg 23%
    16:00 +16°C° 0 mm 5 mps 750 mmHg 24%
    17:00 +15°C° 0 mm 4 mps 750 mmHg 24%
    18:00 +14°C° 0 mm 3 mps 750 mmHg 28%
    19:00 +13°C° 0 mm 2 mps 750 mmHg 31%
    20:00 +11°C° 0 mm 1 mps 751 mmHg 35%
    21:00 +10°C° 0 mm 1 mps 751 mmHg 36%
    22:00 +10°C° 0 mm 1 mps 751 mmHg 38%
    23:00 +9°C° 0 mm 1 mps 751 mmHg 40%

    Tomorrow, 21 July, Saturday

    Time Temperature Precipitation Wind Pressure Humidity
    00:00 +9°C° 0 mm 1 mps 751 mmHg 42%
    01:00 +8°C° 0 mm 2 mps 750 mmHg 43%
    02:00 +8°C° 0 mm 2 mps 750 mmHg 44%
    03:00 +7°C° 0 mm 2 mps 750 mmHg 44%
    04:00 +7°C° 0 mm 2 mps 750 mmHg 45%
    05:00 +7°C° 0 mm 2 mps 749 mmHg 45%
    06:00 +7°C° 0 mm 2 mps 749 mmHg 44%
    07:00 +7°C° 0 mm 2 mps 749 mmHg 43%
    08:00 +8°C° 0 mm 3 mps 749 mmHg 42%
    09:00 +10°C° 0 mm 4 mps 749 mmHg 37%
    10:00 +13°C° 0 mm 5 mps 749 mmHg 31%
    11:00 +16°C° 0 mm 6 mps 749 mmHg 26%
    12:00 +17°C° 0 mm 6 mps 747 mmHg 24%
    13:00 +20°C° 0 mm 7 mps 746 mmHg 22%
    14:00 +21°C° 0 mm 7 mps 745 mmHg 20%
    15:00 +20°C° 0 mm 7 mps 744 mmHg 21%
    16:00 +20°C° 0 mm 7 mps 743 mmHg 21%
    17:00 +19°C° 0 mm 6 mps 742 mmHg 22%
    18:00 +17°C° 0 mm 6 mps 742 mmHg 23%
    19:00 +16°C° 0 mm 6 mps 742 mmHg 24%
    20:00 +15°C° 0 mm 6 mps 742 mmHg 25%
    21:00 +14°C° 0 mm 6 mps 741 mmHg 27%
    22:00 +14°C° 0 mm 6 mps 741 mmHg 29%
    23:00 +13°C° 0 mm 6 mps 741 mmHg 31%

    Day after tomorrow, 22 July, Sunday

    Time Temperature Precipitation Wind Pressure Humidity
    00:00 +13°C° 0 mm 6 mps 740 mmHg 31%
    01:00 +13°C° 0 mm 6 mps 740 mmHg 32%
    02:00 +13°C° 0 mm 6 mps 739 mmHg 33%
    03:00 +12°C° 0 mm 5 mps 739 mmHg 34%
    04:00 +12°C° 0 mm 5 mps 739 mmHg 36%
    05:00 +11°C° 0 mm 4 mps 738 mmHg 38%
    06:00 +11°C° 0 mm 4 mps 739 mmHg 39%
    07:00 +11°C° 0 mm 4 mps 739 mmHg 40%
    08:00 +11°C° 0 mm 3 mps 740 mmHg 41%
    09:00 +13°C° 0 mm 3 mps 740 mmHg 37%
    10:00 +17°C° 0 mm 3 mps 741 mmHg 32%
    11:00 +19°C° 0 mm 3 mps 742 mmHg 28%
    12:00 +20°C° 0 mm 3 mps 742 mmHg 26%
    13:00 +21°C° 0 mm 3 mps 742 mmHg 25%
    14:00 +23°C° 0 mm 4 mps 742 mmHg 23%
    15:00 +22°C° 0 mm 5 mps 742 mmHg 25%
    16:00 +21°C° 0 mm 5 mps 743 mmHg 26%
    17:00 +20°C° 0 mm 6 mps 744 mmHg 27%
    18:00 +17°C° 0 mm 5 mps 745 mmHg 30%
    19:00 +16°C° 0 mm 5 mps 747 mmHg 33%
    20:00 +14°C° 0 mm 4 mps 748 mmHg 35%
    21:00 +14°C° 0 mm 4 mps 749 mmHg 37%
    22:00 +13°C° 0 mm 5 mps 750 mmHg 39%
    23:00 +12°C° 0 mm 5 mps 752 mmHg 41%

    23 July, Monday

    Time Temperature Precipitation Wind Pressure Humidity
    00:00 +12°C° 0 mm 5 mps 752 mmHg 43%
    01:00 +11°C° 0 mm 4 mps 752 mmHg 46%
    02:00 +10°C° 0 mm 4 mps 753 mmHg 48%
    03:00 +10°C° 0 mm 4 mps 753 mmHg 47%
    04:00 +9°C° 0 mm 3 mps 754 mmHg 46%
    05:00 +9°C° 0 mm 3 mps 754 mmHg 44%
    06:00 +9°C° 0 mm 3 mps 755 mmHg 43%
    07:00 +9°C° 0 mm 3 mps 756 mmHg 41%
    08:00 +9°C° 0 mm 2 mps 756 mmHg 39%
    09:00 +10°C° 0 mm 3 mps 757 mmHg 34%
    10:00 +12°C° 0 mm 4 mps 757 mmHg 29%
    11:00 +13°C° 0 mm 4 mps 757 mmHg 23%
    12:00 +14°C° 0 mm 4 mps 756 mmHg 23%
    13:00 +15°C° 0 mm 4 mps 755 mmHg 22%
    14:00 +17°C° 0 mm 4 mps 754 mmHg 21%
    15:00 +15°C° 0 mm 4 mps 754 mmHg 23%
    16:00 +15°C° 0 mm 4 mps 754 mmHg 25%
    17:00 +14°C° 0 mm 4 mps 753 mmHg 26%
    18:00 +13°C° 0 mm 3 mps 754 mmHg 30%
    19:00 +11°C° 0 mm 3 mps 754 mmHg 34%
    20:00 +10°C° 0 mm 2 mps 755 mmHg 38%
    21:00 +9°C° 0 mm 2 mps 755 mmHg 40%
    22:00 +9°C° 0 mm 2 mps 755 mmHg 43%
    23:00 +8°C° 0 mm 2 mps 755 mmHg 46%

    24 July, Tuesday

    Time Temperature Precipitation Wind Pressure Humidity
    00:00 +7°C° 0 mm 2 mps 755 mmHg 49%
    01:00 +7°C° 0 mm 2 mps 755 mmHg 51%
    02:00 +6°C° 0 mm 2 mps 754 mmHg 54%
    03:00 +6°C° 0 mm 2 mps 754 mmHg 56%
    04:00 +5°C° 0 mm 2 mps 754 mmHg 58%
    05:00 +5°C° 0 mm 2 mps 753 mmHg 60%
    06:00 +5°C° 0 mm 2 mps 753 mmHg 61%
    07:00 +5°C° 0 mm 2 mps 754 mmHg 61%
    08:00 +5°C° 0 mm 2 mps 754 mmHg 61%
    09:00 +7°C° 0 mm 2 mps 754 mmHg 58%
    10:00 +9°C° 0 mm 2 mps 753 mmHg 54%
    11:00 +12°C° 0 mm 2 mps 753 mmHg 51%
    12:00 +13°C° 0 mm 2 mps 752 mmHg 48%
    13:00 +15°C° 0 mm 2 mps 751 mmHg 45%
    14:00 +16°C° 0 mm 3 mps 750 mmHg 42%
    15:00 +16°C° 0 mm 3 mps 750 mmHg 43%
    16:00 +16°C° 0 mm 3 mps 749 mmHg 44%
    17:00 +16°C° 0 mm 3 mps 749 mmHg 45%
    18:00 +13°C° 0 mm 3 mps 750 mmHg 50%
    19:00 +13°C° 0 mm 2 mps 750 mmHg 55%
    20:00 +10°C° 0 mm 2 mps 751 mmHg 60%
    21:00 +10°C° 0 mm 2 mps 751 mmHg 62%
    22:00 +9°C° 0 mm 2 mps 751 mmHg 65%
    23:00 +8°C° 0 mm 2 mps 752 mmHg 68%

    25 July, Wednesday

    Time Temperature Precipitation Wind Pressure Humidity
    00:00 +8°C° 0 mm 2 mps 752 mmHg 70%
    01:00 +7°C° 0 mm 2 mps 751 mmHg 72%
    02:00 +7°C° 0 mm 2 mps 751 mmHg 75%
    03:00 +6°C° 0 mm 2 mps 751 mmHg 77%
    04:00 +6°C° 0 mm 2 mps 751 mmHg 80%
    05:00 +6°C° 0 mm 2 mps 751 mmHg 82%
    06:00 +6°C° 0 mm 2 mps 751 mmHg 81%
    07:00 +7°C° 0 mm 1 mps 752 mmHg 79%
    08:00 +8°C° 0 mm 1 mps 752 mmHg 78%
    09:00 +10°C° 0 mm 1 mps 752 mmHg 71%
    10:00 +12°C° 0 mm 1 mps 752 mmHg 64%
    11:00 +14°C° 0 mm 1 mps 752 mmHg 57%
    12:00 +15°C° 0 mm 1 mps 751 mmHg 53%
    13:00 +16°C° 0 mm 2 mps 750 mmHg 49%
    14:00 +18°C° 0 mm 2 mps 749 mmHg 45%
    15:00 +18°C° 0 mm 2 mps 748 mmHg 46%
    16:00 +17°C° 0 mm 2 mps 748 mmHg 47%
    17:00 +17°C° 0 mm 2 mps 748 mmHg 48%
    18:00 +16°C° 0 mm 2 mps 748 mmHg 55%
    19:00 +14°C° 0 mm 2 mps 748 mmHg 62%
    20:00 +13°C° 0 mm 2 mps 748 mmHg 69%
    21:00 +12°C° 0 mm 2 mps 748 mmHg 73%
    22:00 +12°C° 0 mm 2 mps 748 mmHg 77%
    23:00 +10°C° 0 mm 2 mps 748 mmHg 81%
    Show more